This demonstration page uses our WeatherBlox Daily Observations layout. Learn more.

Left ArrowRight Arrow

31.31129, -92.44514

Hourly Observations for December 25, 2020

Temp ( °F °C ) Dew Point ( °F °C ) Humidity (%) Winds ( mph kmh ) Pressure ( in mb ) Visibility ( mi km ) Precip ( " mm )
12:53 am 00:53 Clear 34 1.1 25 -3.9 70 70 W 3 6 30.18 1022 10 16 0.00 0.00
1:53 am 01:53 Clear 33 0.6 26 -3.3 75 75 NW 6 9 30.18 1022 10 16 0.00 0.00
2:53 am 02:53 Clear 33 0.6 26 -3.3 75 75 WNW 7 11 30.18 1022 10 16 0.00 0.00
3:53 am 03:53 Clear 34 1.1 26 -3.3 73 73 WNW 8 13 30.19 1023 10 16 0.00 0.00
4:53 am 04:53 Clear 33 0.6 26 -3.3 75 75 WNW 8 13 30.21 1023 10 16 0.00 0.00
5:53 am 05:53 Clear 33 0.6 25 -3.9 72 72 WNW 8 13 30.23 1024 10 16 0.00 0.00
6:53 am 06:53 Clear 33 0.6 24 -4.4 70 70 W 9 15 30.27 1025 10 16 0.00 0.00
7:53 am 07:53 Sunny 34 1.1 25 -3.9 70 70 W 7 11 30.29 1026 10 16 0.00 0.00
8:53 am 08:53 Sunny 38 3.3 23 -5 55 55 NW 10 17 30.32 1027 10 16 0.00 0.00
9:53 am 09:53 Sunny 42 5.6 23 -5 47 47 NW 12 19 30.33 1027 10 16 0.00 0.00
10:53 am 10:53 Sunny 43 6.1 22 -5.6 43 43 NW 14 22 30.32 1027 10 16 0.00 0.00
11:53 am 11:53 Sunny 46 7.8 21 -6.1 37 37 NNW 13 20 30.29 1026 10 16 0.00 0.00
12:53 pm 12:53 Sunny 47 8.3 22 -5.6 37 37 WNW 12 19 30.27 1025 10 16 0.00 0.00
1:53 pm 13:53 Sunny 48 8.9 20 -6.7 33 33 WNW 9 15 30.25 1025 10 16 0.00 0.00
2:53 pm 14:53 Sunny 49 9.4 21 -6.1 33 33 WNW 14 22 30.25 1024 10 16 0.00 0.00
3:53 pm 15:53 Sunny 49 9.4 23 -5 36 36 NW 12 19 30.25 1025 10 16 0.00 0.00
4:53 pm 16:53 Sunny 47 8.3 25 -3.9 42 42 WNW 6 9 30.26 1025 10 16 0.00 0.00
5:53 pm 17:53 Clear 41 5 30 -1.1 65 65 WNW 5 7 30.27 1025 10 16 0.00 0.00
6:53 pm 18:53 Clear 41 5 29 -1.7 62 62 Calm 30.28 1025 10 16 0.00 0.00
7:53 pm 19:53 Clear 39 3.9 26 -3.3 60 60 Calm 30.28 1025 10 16 0.00 0.00
8:53 pm 20:53 Clear 37 2.8 31 -0.6 79 79 Calm 30.28 1025 10 16 0.00 0.00
9:53 pm 21:53 Clear 35 1.7 28 -2.2 76 76 Calm 30.28 1025 10 16 0.00 0.00
10:53 pm 22:53 Clear 35 1.7 29 -1.7 78 78 Calm 30.27 1025 10 16 0.00 0.00
11:53 pm 23:53 Clear 33 0.6 31 -0.6 92 92 Calm 30.27 1025 10 16 0.00 0.00

Powered by AerisWeather